Погода в Ытык-Кюёле

Россия / Республика Саха (Якутия)     62°21′38″N   133°33′35″E
темп.,
°C
ветер,
м/с
пор.,
м/с
влажн.,
%
обл.,
%
осадки,
мм/ч
давл.,
гПа
погр.,
м
1 марта, пн
пн100:00−27з2499100 0.1 1023117
03:00−29з2698100 0.1 1023187
06:00−31зюз239899 0.0 102467
09:00−28зюз2596100 0.0 1024305
12:00−26зюз3589100 0.1 1025799
15:00−25з3488100 0.1 1024836
18:00−27з2397100 0.1 1025131
21:00−28з2299100 0.1 102523
2 марта, вт
вт200:00−30з129996 0.0 102521
03:00−31з129997 0.1 102519
06:00−33з1210095 0.0 102619
09:00−32з129894 0.0 102585
12:00−28з239198 0.0 1025436
15:00−27з229099 0.1 1025646
18:00−28з1299100 0.1 102520
21:00−29зсз1299100 0.3 102534
3 марта, ср
ср300:00−29зсз1199100 0.1 102420
03:00−30з1199100 0.1 102419
06:00−30зсз1199100 0.1 102319
09:00−29з1297100 0.1 1022147
12:00−27з1288100 0.1 1020517
15:00−27з2288100 0.1 1019668
18:00−29зсз1297100 0.1 101819
21:00−30зсз2298100 0.1 101851
4 марта, чт
чт400:00−30зсз2498100 0.1 1017154
03:00−31з2498100 0.1 1016169
06:00−32з2598100 0.1 1016192
09:00−32зсз3595100 0.1 1017387
12:00−30з3489100 0.0 1017668
15:00−29з3588100 0.1 1018787
18:00−32з2396100 0.0 101950
21:00−35зсз2598100 0.0 1020115
5 марта, пт
пт500:00−35з379898 0.0 1020194
03:00−35з379699 0.0 1021286
06:00−36з3795100 0.0 1021275
09:00−36з3694100 0.0 1022301
12:00−33з3592100 0.0 1022376
15:00−31з3691100 0.0 1022459
18:00−31з3895100 0.0 1022436
21:00−31з3896100 0.1 1023382